Alma, GA

1:39 AM EDT on May 01, 2017 (GMT -0400)
Bacon County

Weather History for KAMG - January, 2014

Change the Weather History Date:

Friday, January 31, 2014

  Actual Average Record
Temperature  
Mean Temperature 47 °F 52 °F  
Max Temperature 59 °F 63 °F 82 °F (2002)
Min Temperature 35 °F 41 °F 17 °F (1966)
Degree Days  
Heating Degree Days 18 13  
Month to date heating degree days 604 450  
Since 1 July heating degree days 1164 1089  
Cooling Degree Days 0 0  
Month to date cooling degree days 1 5  
Year to date cooling degree days 1 5  
Moisture  
Dew Point 36 °F    
Average Humidity 75    
Maximum Humidity 92    
Minimum Humidity 57    
Precipitation  
Precipitation 0.00 in 0.15 in 0.62 in (1959)
Month to date precipitation 1.61 4.26  
Year to date precipitation 1.61 4.26  
Snow  
Snow 0.00 in 0.00 in 0.00 in ()
Month to date snowfall 0.0 0.0  
Since 1 July snowfall 0.0 0.1  
Snow Depth 0.00 in    
Sea Level Pressure  
Sea Level Pressure 30.20 in    
Wind  
Wind Speed 2 mph (NE)    
Max Wind Speed 12 mph    
Max Gust Speed 14 mph    
Visibility 6 miles    
Events Fog    
T = Trace of Precipitation, MM = Missing Value Source: NWS Daily Summary

Daily Weather History Graph

Daily Weather History Graph

Search for Another Location

Airport or City:

Trip Planner

Search our weather history database for the weather conditions in past years. The results will help you decide how hot, cold, wet, or windy it might be!

Date:

Astronomy

Jan. 31, 2014 Rise Set
Actual Time 7:23 AM EST 6:03 PM EST
Civil Twilight 6:57 AM EST 6:29 PM EST
Nautical Twilight 6:28 AM EST 6:58 PM EST
Astronomical Twilight 6:00 AM EST 7:27 PM EST
Moon 7:38 AM EST (1/31) 7:18 PM EST (1/31)
Length of Visible Light 11h 31m
Length of Day
10h 40m
New Moon, 1% of the Moon is Illuminated
Jan 31
New Moon
Feb 6
First Quarter
Feb 14
Full
Feb 22
Last Quarter
Mar 1
New

Hourly Weather History & Observations

Time (EST) Temp. Windchill Dew Point Humidity Pressure Visibility Wind Dir Wind Speed Gust Speed Precip Events Conditions
12:53 AM 37.0 °F 34.5 °F 25.0 °F 62% 30.20 in 10.0 mi North 3.5 mph - N/A   Overcast
1:53 AM 37.0 °F - 28.0 °F 70% 30.20 in 10.0 mi Calm Calm - N/A   Overcast
2:53 AM 36.0 °F 32.1 °F 30.0 °F 79% 30.20 in 9.0 mi Variable 4.6 mph - N/A   Overcast
3:53 AM 35.1 °F 32.2 °F 30.0 °F 82% 30.20 in 9.0 mi Variable 3.5 mph - N/A   Overcast
4:53 AM 35.1 °F 31.0 °F 30.9 °F 85% 30.20 in 7.0 mi NNE 4.6 mph - N/A   Overcast
5:41 AM 35.1 °F - 30.9 °F 85% 30.20 in 5.0 mi Calm Calm - N/A   Overcast
5:53 AM 35.1 °F 31.0 °F 30.9 °F 85% 30.19 in 5.0 mi ENE 4.6 mph - N/A   Overcast
6:06 AM 35.1 °F - 30.9 °F 85% 30.19 in 6.0 mi Calm Calm - N/A   Overcast
6:53 AM 36.0 °F 33.3 °F 32.0 °F 86% 30.21 in 7.0 mi NNW 3.5 mph - N/A   Overcast
7:13 AM 36.0 °F 32.1 °F 32.0 °F 86% 30.20 in 4.0 mi North 4.6 mph - N/A   Overcast
7:22 AM 36.0 °F 31.1 °F 32.0 °F 86% 30.19 in 3.0 mi North 5.8 mph - N/A   Overcast
7:29 AM 36.0 °F - 33.1 °F 89% 30.20 in 2.5 mi Calm Calm - N/A   Overcast
7:36 AM 36.0 °F - 33.1 °F 89% 30.20 in 2.5 mi Calm Calm - N/A   Overcast
7:53 AM 36.0 °F 33.3 °F 33.1 °F 89% 30.21 in 2.0 mi North 3.5 mph - N/A   Overcast
8:04 AM 36.0 °F - 33.1 °F 89% 30.21 in 1.5 mi Calm Calm - N/A   Overcast
8:34 AM 36.0 °F - 33.1 °F 89% 30.23 in 0.8 mi Calm Calm - N/A   Overcast
8:53 AM 36.0 °F - 34.0 °F 93% 30.24 in 0.5 mi Calm Calm - N/A Fog Fog
9:53 AM 37.9 °F 35.5 °F 35.1 °F 89% 30.25 in 0.8 mi NE 3.5 mph - N/A   Overcast
10:38 AM 39.0 °F 36.8 °F 37.0 °F 93% 30.25 in 0.2 mi Variable 3.5 mph - N/A Fog Fog
10:50 AM 39.2 °F - 35.6 °F 87% 30.25 in 0.5 mi Calm Calm - N/A Fog Fog
10:53 AM 39.0 °F 36.8 °F 37.0 °F 93% 30.25 in 0.5 mi ENE 3.5 mph - N/A Fog Fog
11:08 AM 39.9 °F - 37.0 °F 89% 30.25 in 1.0 mi Calm Calm - N/A   Overcast
11:35 AM 41.0 °F - 37.0 °F 86% 30.24 in 2.0 mi Calm Calm - N/A   Overcast
11:46 AM 42.1 °F 39.2 °F 37.9 °F 85% 30.24 in 3.0 mi ESE 4.6 mph - N/A   Overcast
11:53 AM 42.1 °F 40.2 °F 37.9 °F 85% 30.23 in 2.5 mi SE 3.5 mph - N/A   Overcast
12:01 PM 43.0 °F 40.3 °F 37.9 °F 82% 30.23 in 5.0 mi SE 4.6 mph - N/A   Haze
12:18 PM 45.0 °F 42.6 °F 39.0 °F 80% 30.22 in 7.0 mi SE 4.6 mph - N/A   Overcast
12:53 PM 48.9 °F - 39.9 °F 71% 30.20 in 10.0 mi Variable 3.5 mph - N/A   Scattered Clouds
1:53 PM 52.0 °F - 41.0 °F 66% 30.17 in 9.0 mi Calm Calm - N/A   Clear
2:53 PM 55.9 °F - 42.1 °F 60% 30.15 in 10.0 mi WNW 4.6 mph - N/A   Clear
3:53 PM 57.9 °F - 43.0 °F 58% 30.15 in 10.0 mi Calm Calm - N/A   Clear
4:53 PM 57.9 °F - 43.0 °F 58% 30.16 in 10.0 mi NNW 4.6 mph - N/A   Clear
5:53 PM 55.9 °F - 43.0 °F 62% 30.16 in 10.0 mi Calm Calm - N/A   Clear
6:53 PM 48.0 °F - 43.0 °F 83% 30.16 in 10.0 mi Calm Calm - N/A   Clear
7:53 PM 46.0 °F - 42.1 °F 86% 30.16 in 10.0 mi Calm Calm - N/A   Clear
8:53 PM 44.1 °F - 41.0 °F 89% 30.16 in 10.0 mi Calm Calm - N/A   Clear
9:53 PM 44.1 °F - 41.0 °F 89% 30.16 in 9.0 mi Calm Calm - N/A   Partly Cloudy
10:53 PM 46.9 °F - 43.0 °F 86% 30.16 in 10.0 mi Calm Calm - N/A   Overcast
11:53 PM 51.1 °F - 45.0 °F 80% 30.15 in 10.0 mi Calm Calm - N/A   Overcast